Location: Brantley
(31.5822°N, 86.2569°W)
Time: 12:38:26
(UTC+00:00)

Vanguard 3 - Pass Details

Date: 23 February 2026
Orbit: 507 x 3205 km, 33.4° (Epoch: 17 March)

Event Time Altitude Azimuth Distance (km) Brightness Sun altitude
Rises 21:37:12 0° 264° (W) 6,352 12.8 23.5°
Reaches altitude 10° 21:42:02 10° 266° (W) 4,953 12.5 22.6°
Maximum altitude 21:55:01 82° 354° (N) 1,503 8.8 20.1°
Drops below altitude 10° 22:02:03 10° 82° (E) 2,816 9.4 18.7°
Sets 22:04:06 0° 83° (E) 3,529 9.8 18.3°
